Morlaix/Ploujean

Airport
ICAO code: 
LFRU
Summary
ICAO Region: 
EUR
Territory: 
Location: 
Ploujean, Bretagne,
Coordinates: 
Aerial View: 
48° 36' 11.516" N, 3° 48' 56.808" W
Metar
Observation
LFRU 010930Z AUTO 30017KT 9999 FEW034/// SCT046/// BKN062/// ///CB 10/05 Q1008
Station
Morlaix / Ploujean
Date/Time
2021-12-01 09:30:00
Wind direction
300°
Wind speed
17 kts
Lowest cloud amount
few clouds
Temperature
10°C
Dew point
5°C
Humidity
71%
QNH
1008 hPa
Weather condition
n/a

Description

Morlaix - Ploujean Airport is an airport located 2 km northeast of Morlaix, a commune of the Finistère department in the Brittany region of France. The airport is located in the former commune of Ploujean.

Climatology

Temperate Marine climate/Oceanic climate (Köppen climate classification Cfb). Moderately cool summer and comparatively warm winter with a temperature range of only 14°C. Prevailing south-westerly winds from the Atlantic Ocean.

Runways

Designator Length Width Surface Rops
16/34 0 0 UNK No/No
5/23 1617 36 ASP No/No
Airport map: 
Aerial View: 

SKYbrary Partners:

Safety knowledge contributed by: